Tracking 25953 objects as of 16-Aug-2022
HD Live streaming from Space Station
objects crossing your sky now

STARLINK-4091

Track STARLINK-4091 now!
10-day predictions
STARLINK-4091 is classified as:


NORAD ID: 52830
Int'l Code: 2022-062A
Perigee: 545.9 km
Apogee: 547.9 km
Inclination: 53.2 °
Period: 95.4 minutes
Semi major axis: 6917 km
RCS: Unknown
Launch date: June 17, 2022
Source: United States (US)
Launch site: AIR FORCE EASTERN TEST RANGE (AFETR)
aabbcc
Your satellite tracking list
Your tracking list is empty




NASA's NSSDC Master Catalog

Two Line Element Set (TLE):
1 52830U 22062A   22227.58334491 -.00016322  00000-0 -10098-2 0  9998
2 52830  53.2129 119.5026 0001480  77.8291  96.7412 15.08838046  1309
Source of the keplerian elements: AFSPC